Regional Weather Roundup
Issued by NWS Wakefield, VA

Home | Current Version | Previous Version | Graphics & Text | Print | Product List | Glossary On
Versions: 1 2 3 4 5 6 7 8 9 10 11 12 13 14 15 16 17 18 19 20 21 22 23 24 25 26 27 28 29 30 31 32 33 34 35 36 37 38 39 40 41 42 43 44 45 46 47 48 49 50
000
ASUS41 KAKQ 032315
RWRAKQ

REGIONAL WEATHER ROUNDUP
NATIONAL WEATHER SERVICE WAKEFIELD VA
700 PM EDT FRI JUL 03 2015

Note: "fair" indicates few or no clouds below 12,000 feet with no
significant weather and/or obstructions to visibility. * = Denotes
station may not report precipitation (e.g., rain,snow,etc.),
thunder or fog.

VAZ042-051-052>054-056-040000-
NORTHERN VIRGINIA

CITY           SKY/WX    TMP DP  RH WIND       PRES   REMARKS
WASH NATIONAL  LGT RAIN  79  64  60 SE7       29.94S
DULLES         LGT RAIN  72  68  87 CALM      29.94F
FORT BELVOIR   CLOUDY    74  67  79 SE3       29.94S
QUANTICO       LGT RAIN  76  65  68 SE7       29.94S
FREDERICKSBRG* LGT RAIN  75  70  82 CALM      29.92F
STAFFORD*      DRIZZLE   74  67  79 E5        29.97F
WARRENTON      CLOUDY    77  70  79 SE3       29.92F
CULPEPER*      CLOUDY    73  66  78 CALM      29.94S
MANASSAS*      CLOUDY    75  70  83 CALM      29.94S
LEESBURG*      CLOUDY    75  68  78 S9G16     29.95S
WINCHESTER     DRIZZLE   72  66  83 CALM      29.95S
FRONT ROYAL*   CLOUDY    70  64  83 CALM      29.93F
LURAY*         CLOUDY    72  68  88 CALM      29.94F
$$

VAZ048-049-060>072-079>083-040000-
CENTRAL AND SOUTH CENTRAL VIRGINIA

CITY           SKY/WX    TMP DP  RH WIND       PRES   REMARKS
RICHMOND       LGT RAIN  77  66  68 E9        29.91F
CHESTERFIELD*  NOT AVBL
PETERSBURG*    LGT RAIN  75  73  92 NE6       29.91F
HANOVER        CLOUDY    75  67  76 CALM      29.93F
TAPPAHANNOCK*  CLOUDY    76  62  60 E3        29.94S
QUINTON*       MOCLDY    73  69  87 E8        29.92S
CHARLOTTSVILLE LGT RAIN  73  67  81 CALM      29.93F
GORDONSVILLE*  FAIR      72  68  88 CALM      29.93S
ORANGE*        CLOUDY    73  66  78 CALM      29.95S
LOUISA*        DRIZZLE   73  70  88 CALM      29.92S
BUMPASS*       CLOUDY    73  69  86 CALM      29.92S
FARMVILLE*     LGT RAIN  73  73  98 N5        29.90F
CREWE*         CLOUDY    74  71  89 CALM      29.90S
FORT PICKETT*  CLOUDY    72  71  98 S6        29.91F VSB 1
CHASE CITY*    CLOUDY    74  74 100 CALM      29.89S
CLARKSVILLE*   CLOUDY    72  72 100 CALM      29.88F
SOUTH HILL*    CLOUDY    73  72  98 CALM      29.94F
LAWRENCEVILLE* NOT AVBL
EMPORIA*       LGT RAIN  72  72 100 NE5       29.90F
$$

VAZ088>098-040000-
SOUTHEAST VIRGINIA

CITY           SKY/WX    TMP DP  RH WIND       PRES   REMARKS
NORFOLK        PTSUNNY   76  66  71 E9        29.92F
VIRGINIA BEACH MOSUNNY   78  67  68 E15       29.92F
NORFOLK NAVAL  CLOUDY    76  66  71 E13       29.93F
WEST POINT*    CLOUDY    78  65  63 E8        29.94S
SALUDA*        CLOUDY    76  65  70 E12G20    29.94R
NEWPORT NEWS   LGT RAIN  75  68  78 E15G22    29.93S
LANGLEY AFB    CLOUDY    75  68  78 E16       29.91S
FORT EUSTIS    DRIZZLE   75  68  79 E6        29.90S
WILLIAMSBURG*  CLOUDY    77  72  83 E6        29.93S
HR EXEC AP*    FAIR      75  66  73 E9        29.93F
FRANKLIN*      LGT RAIN  72  71  98 CALM      29.91F
WAKEFIELD      HVY RAIN  72  68  87 S3        29.92R VSB 3/4
$$

VAZ020-022-025-037-045-040000-
WEST CENTRAL AND SOUTHWEST VIRGINIA

CITY           SKY/WX    TMP DP  RH WIND       PRES   REMARKS
STAUNTON*      DRIZZLE   71  66  84 CALM      29.96F
WAYNESBORO*    CLOUDY    69  64  84 SE5       29.96F
HOT SPRINGS VA DRZL/FOG  61  61 100 E6        30.02S VSB<1/4
LYNCHBURG      LGT RAIN  69  68  96 NE5       29.94S FOG
DANVILLE       LGT RAIN  76  70  82 S3        29.89F
SOUTH BOSTON*  CLOUDY    71  70  96 MISG      29.89S
MARTINSVILLE   CLOUDY    72  72 100 N6        29.93S
ROANOKE        LGT RAIN  68  66  93 NE3       29.96S FOG
BLACKSBURG     CLOUDY    66  66 100 E5        29.99S FOG
DUBLIN*        RAIN      68  68 100 NE6       29.96S
MARION*        CLOUDY    70  66  87 W7        29.99S
HILLSVILLE*    RAIN      68  68  98 CALM      29.96F
RICHLANDS*     CLOUDY    69  65  88 CALM      29.97S
WISE*          CLOUDY    70  68  94 SW6       29.97S
ABINGDON*      CLOUDY    71  69  94 W8        29.95S
$$

MDZ021>025-VAZ099-100-040000-
SOUTHERN MARYLAND AND THE DELMARVA PENINSULA

CITY           SKY/WX    TMP DP  RH WIND       PRES   REMARKS
PATUXENT RIVER CLOUDY    77  63  61 SE10      29.94F
BAY BRIDGE APT   N/A     77  63  61 S5        29.94F
LEONARDTOWN    CLOUDY    73  63  68 SE3       29.96S
DOVER          PTSUNNY   74  66  75 SE9       29.94F
GEORGETOWN     PTSUNNY   75  63  66 SE8       29.97F
EASTON         MOSUNNY   77  68  73 CALM      29.98S
CAMBRIDGE      CLOUDY    77  61  57 SE8       29.94F
SALISBURY      PTSUNNY   75  65  70 SE9       29.96F
OCEAN CITY     MOSUNNY   73  65  75 SE8       29.97F
WALLOPS ISLAND MOSUNNY   74  67  78 SE10      29.97S
ACCOMACK*      MOSUNNY   73  66  78 SE7       29.96S
$$

NCZ012>017-030>032-040000-
NORTH CENTRAL AND EASTERN NORTH CAROLINA

CITY           SKY/WX    TMP DP  RH WIND       PRES   REMARKS
ROANOKE RAPIDS CLOUDY    73  72  94 CALM      29.89R
RALEIGH        LGT RAIN  77  73  87 S6        29.89F
ELIZABETH CITY HVY RAIN  75  72  90 E14       29.91F VSB 1
AHOSKIE*       CLOUDY   N/A N/A N/A CALM      29.89F
EDENTON*       HVY RAIN  75  72  90 SE5       29.92R
CURRITUCK*     CLOUDY    78  67  70 E9        29.93F
KILL DEVIL HLS DRIZZLE   76  73  89 E5        29.91F
MANTEO         CLOUDY    76  73  92 E7        29.92F
CAPE HATTERAS  PTSUNNY   79  73  82 SW10G21   29.93F
TARBORO*         N/A     80  72  75 S5        29.89F
GOLDSBORO      CLOUDY    75  74  96 SE1       29.89S
WASHINGTON     PTSUNNY   75  74  95 E6        29.90S
GREENVILLE     RAIN      81  73  78 SW9       29.92R
NEW BERN       LGT RAIN  77  74  90 S8        29.94R
WILMINGTON     LGT RAIN  78  74  87 SW10      29.93F
$$

VAZ048-040000-
ELSEWHERE

CITY           SKY/WX    TMP DP  RH WIND       PRES   REMARKS
HARRISBURG PA  CLOUDY    76  64  66 SE3       29.93S
BALTIMORE      CLOUDY    76  63  64 S3        29.94S
ANNAPOLIS      CLOUDY    76  64  66 S8        29.94F
ANDREWS AFB    CLOUDY    74  69  82 SE6       29.94S
PHILADELPHIA   CLOUDY    80  61  52 S8        29.95S
HENDERSON NC   CLOUDY    74  71  89 SW7       29.89F
GREENSBORO     PTSUNNY   77  69  76 S5        29.88F
ROCKY MOUNT    LGT RAIN  78  73  84 S8        29.88F
$$

VAZ100-040000-
MARINE

STATION/POSITION TIME  TEMP    WIND        PRES    WAVE   SWELL
                       AIR SEA DIR/SP/G            HT/PER HT/PER
                 (UTC) (F)     (DEG/KT/KT) (MB)    (FT/S) (FT/S)
BRANDYWINE LGT   2200   73 75  150/ 12/ 13 1015.0R
CAPE MAY NJ      2200   73 78  120/  8/ 10 1014.5F
LEWES DE         2200   74 73  140/  8/ 12 1014.8R
15NM E FENWICK I 2250   73 75              1014.8R   3/ 7
OCEAN-CITY-INLET 2200   75 76  140/  6/  9 1014.9F
WACHAPREAGUE VA  2200   75 83  110/  9/ 12 1014.6F
THOMAS POINT MD  2200   76 77  180/ 10/ 11 1014.5F
GOOSES REEF MD   2300   78 78  190/ 10/ 12 1014.7F
COVE POINT MD    2200   77     190/ 13/ 14 1014.6F
SOLOMONS ISLAND  2200      81                N/A
BISHOPS HEAD MD  2200   78     120/ 10/ 13 1013.9F
PINEY POINT MD   2200          150/ 13/ 15   N/A
CAMBRIDGE MD     2200   79 79  170/  4/  6 1013.9F
LEWISETTA VA     2200   78 80  150/  9/ 12 1013.5F
RAPPAHANNOCK LGT 2200          100/ 15/ 16 1014.5F
STINGRAY PT      2300   76 80  120/ 14/ 16 1014.0S   2/ 3
YORK RVR RNG VA  2200   76     120/ 15/ 17 1012.8F
YORKTOWN VA      2200   77 80  100/ 12/ 15 1013.2F
JAMESTOWN VA     2300   75 83   90/  8/ 14   N/A
DOMINION TERM VA 2200   76      80/ 14/ 20 1013.2F
KIPTOPEKE VA     2218      83  110/  9/ 17   N/A
CHES BAY BRIDGE  2200   75 77   80/ 15/ 17 1013.3S
CAPE HENRY VA    2200   75     100/ 16/ 18 1012.2F
CHESAPEAKE LGHT  2200   75     100/ 15/ 18 1014.4F
WILLOUBY STN VA  2200   75     100/ 16/ 17 1014.2F
CAPE HENRY BUOY  2228      78                N/A     3/ 8
1ST LANDING BUOY 2300      77              1013.1F   3/ 4
CAPE CHARLES BUO 2226      78                N/A     3/ 8   2/ 8
OFFSHORE WE BUOY 2211      79                N/A     3/ 8   2/ 8
64NM E OF VA BCH 2250   76 78  110/  8/ 10 1013.9S   3/ 8   3/ 8
DUCK PIER NC     2200   76 77  100/ 13/ 14 1012.8F
44100 DUCK FRF   2224      78                N/A     3/ 8
44056 DUCK FRF   2211      77                N/A     2/ 8
OREGON INLET NC  2200   77 78  110/  7/ 10 1013.7F
HATTERAS NC      2200   79 79  200/ 11/ 16 1013.5S
DIAMOND SHLS NC  2250   81 81  230/ 21/ 27 1013.3F   5/ 7   2/15
CAPE LOOKOUT NC  2300   80     220/ 15/ 21 1014.0R
$$


USA.gov is the U.S. government's official web portal to all federal, state and local government web resources and services.